{"data":{"norad_id":36588,"intl_designator":"2010-023A","name":"SERVIS 2","alt_names":[],"object_type":"PAYLOAD","status":"ACTIVE","operator":null,"country":"JPN","launch_date":"2010-06-02","launch_site_code":"PLMSC","launch_vehicle":null,"mission":null,"orbit_class":"UNKNOWN","rcs_meters":2.6607,"size_class":null,"mass_kg":null,"dimensions":null,"purposes":[],"wikipedia_slug":null,"has_3d_model":false,"image_url":null,"decayed_at":null,"tle_current":{"epoch":"2026-05-25T02:47:00.843936Z","epoch_age_seconds":68074,"freshness":"FRESH","line1":"1 36588U 10023A   26145.11598199  .00000009  00000+0  14196-3 0  9999","line2":"2 36588 100.4284 333.1626 0016943 329.4258 142.3721 13.16051685767737","mean_motion":13.16051685,"eccentricity":0.0016943,"inclination_deg":100.4284,"raan_deg":333.1626,"arg_perigee_deg":329.4258,"mean_anomaly_deg":142.3721,"bstar":0.00014196,"rev_number":76773,"period_min":109.41819507643,"perigee_km":1186.999381801,"apogee_km":1212.6781104143,"semimajor_km":7577.9757461077,"source":"CELESTRAK","updated_at":"2026-05-25T13:37:55.196830Z"}}}